DW7412 Weather Reports


Display with metric or nautical units.
time (UTC)temp
F
wind
direction
speed
MPH
gust
MPH
rain 1hr
in
rain 24hr
in
rain mn
in
humidity
%
barometer
mb
20260507024923 61 234 1.0 4.0 0.00 0.00 0.00 75 1015.6
20260507024424 62 272 2.0 4.0 0.00 0.00 0.00 74 1015.6
20260507023924 62 281 2.0 5.0 0.00 0.00 0.00 73 1015.6
20260507023425 62 240 2.0 5.0 0.00 0.00 0.00 73 1015.5
20260507022923 62 231 2.0 5.0 0.00 0.00 0.00 72 1015.5
20260507022422 63 188 2.0 5.0 0.00 0.00 0.00 71 1015.4
20260507021924 63 212 2.0 5.0 0.00 0.00 0.00 70 1015.4
20260507021422 63 203 2.0 5.0 0.00 0.00 0.00 70 1015.3
20260507020924 64 204 1.0 5.0 0.00 0.00 0.00 69 1015.3
20260507020423 64 169 1.0 3.0 0.00 0.00 0.00 69 1015.3
20260507015924 64 179 1.0 4.0 0.00 0.00 0.00 69 1015.3
20260507015423 64 220 2.0 4.0 0.00 0.00 0.00 68 1015.3
20260507014923 64 223 2.0 4.0 0.00 0.00 0.00 68 1015.3
20260507014424 65 248 2.0 4.0 0.00 0.00 0.00 67 1015.3
20260507013923 65 281 1.0 4.0 0.00 0.00 0.00 66 1015.4
20260507013423 65 235 2.0 4.0 0.00 0.00 0.00 65 1015.3
20260507012924 65 209 1.0 5.0 0.00 0.00 0.00 65 1015.3
20260507012423 66 213 2.0 5.0 0.00 0.00 0.00 64 1015.3
20260507011923 67 186 3.0 4.0 0.00 0.00 0.00 62 1015.2
20260507010925 67 240 2.0 5.0 0.00 0.00 0.00 61 1015.2
20260507010423 67 193 3.0 5.0 0.00 0.00 0.00 61 1015.3
20260507005423 68 203 4.0 6.0 0.00 0.00 0.00 59 1015.5
20260507004923 68 171 3.0 9.0 0.00 0.00 0.00 59 1015.5
20260507004424 68 183 2.0 10.0 0.00 0.00 0.00 60 1015.4
20260507003922 68 169 4.0 10.0 0.00 0.00 0.00 59 1015.4
20260507003422 68 190 5.0 10.0 0.00 0.00 0.00 58 1015.4
20260507002923 68 182 2.0 9.0 0.00 0.00 0.00 58 1015.5
20260507001924 69 175 3.0 6.0 0.00 0.00 0.00 56 1015.4
20260507000925 70 234 4.0 9.0 0.00 0.00 0.00 56 1015.4
20260507000424 70 179 3.0 7.0 0.00 0.00 0.00 56 1015.4
20260506235926 70 203 3.0 9.0 0.00 0.00 0.00 55 1015.3
20260506235424 70 196 2.0 9.0 0.00 0.00 0.00 55 1015.3
20260506234926 70 176 3.0 7.0 0.00 0.00 0.00 56 1015.3
20260506233922 70 195 4.0 7.0 0.00 0.00 0.00 55 1015.3
20260506232924 71 175 3.0 12.0 0.00 0.00 0.00 56 1015.4
20260506231923 71 216 2.0 11.0 0.00 0.00 0.00 56 1015.4
20260506231422 71 72 2.0 11.0 0.00 0.00 0.00 54 1015.3
20260506230922 71 210 5.0 11.0 0.00 0.00 0.00 54 1015.4
20260506230424 71 188 2.0 11.0 0.00 0.00 0.00 55 1015.4
20260506225924 71 185 5.0 10.0 0.00 0.00 0.00 53 1015.4
20260506225422 73 234 4.0 10.0 0.00 0.00 0.00 53 1015.4
20260506224925 72 190 3.0 9.0 0.00 0.00 0.00 53 1015.5
20260506224423 73 212 4.0 9.0 0.00 0.00 0.00 53 1015.6
20260506223423 73 135 2.0 7.0 0.00 0.00 0.00 53 1015.6
20260506222922 73 190 3.0 13.0 0.00 0.00 0.00 53 1015.8
20260506221922 73 243 5.0 11.0 0.00 0.00 0.00 52 1016.0
20260506220924 73 176 4.0 11.0 0.00 0.00 0.00 53 1016.0
20260506220423 73 169 2.0 11.0 0.00 0.00 0.00 52 1016.2
20260506215423 74 168 3.0 7.0 0.00 0.00 0.00 51 1016.3
20260506214924 74 83 1.0 9.0 0.00 0.00 0.00 51 1016.3
20260506214424 74 186 3.0 10.0 0.00 0.00 0.00 51 1016.3
20260506213925 73 121 3.0 10.0 0.00 0.00 0.00 51 1016.4
20260506213423 74 168 2.0 11.0 0.00 0.00 0.00 53 1016.4
20260506212923 74 185 4.0 12.0 0.00 0.00 0.00 53 1016.4
20260506212423 74 202 3.0 13.0 0.00 0.00 0.00 54 1016.4
20260506211924 73 180 2.0 13.0 0.00 0.00 0.00 54 1016.5
20260506211424 74 133 2.0 6.0 0.00 0.00 0.00 54 1016.6
20260506210923 74 121 2.0 6.0 0.00 0.00 0.00 53 1016.8
20260506210423 73 173 2.0 7.0 0.00 0.00 0.00 55 1016.7
20260506205922 73 138 3.0 9.0 0.00 0.00 0.00 53 1016.6
20260506205424 73 145 4.0 9.0 0.00 0.00 0.00 55 1016.7
20260506204923 73 133 3.0 10.0 0.00 0.00 0.00 55 1016.7
20260506204422 73 204 3.0 10.0 0.00 0.00 0.00 56 1016.7
20260506203922 73 168 3.0 7.0 0.00 0.00 0.00 55 1016.8
20260506202922 73 171 3.0 11.0 0.00 0.00 0.00 55 1016.8
20260506202423 74 269 3.0 10.0 0.00 0.00 0.00 56 1017.0
20260506201922 72 234 2.0 10.0 0.00 0.00 0.00 56 1017.0
20260506201422 73 204 2.0 11.0 0.00 0.00 0.00 56 1017.0
20260506200923 73 161 1.0 11.0 0.00 0.00 0.00 56 1017.0
20260506200423 72 116 5.0 11.0 0.00 0.00 0.00 57 1017.0
20260506195922 72 195 4.0 13.0 0.00 0.00 0.00 57 1017.1
20260506195423 72 203 5.0 13.0 0.00 0.00 0.00 57 1017.1
20260506194923 72 117 3.0 13.0 0.00 0.00 0.00 57 1017.1
20260506193923 72 193 4.0 10.0 0.00 0.00 0.00 57 1017.2
20260506193422 72 133 3.0 12.0 0.00 0.00 0.00 58 1017.1
20260506192922 72 180 4.0 12.0 0.00 0.00 0.00 56 1017.3
20260506192423 72 162 3.0 9.0 0.00 0.00 0.00 57 1017.3
20260506191923 72 169 2.0 10.0 0.00 0.00 0.00 58 1017.3
20260506191423 71 106 2.0 10.0 0.00 0.00 0.00 58 1017.2
20260506190924 72 206 4.0 10.0 0.00 0.00 0.00 58 1017.2
20260506190422 72 124 2.0 9.0 0.00 0.00 0.00 58 1017.3
20260506185922 72 244 4.0 9.0 0.00 0.00 0.00 57 1017.3
20260506185423 72 148 2.0 9.0 0.00 0.00 0.00 57 1017.3
20260506184923 73 154 4.0 10.0 0.00 0.00 0.00 55 1017.4
20260506184422 72 200 4.0 10.0 0.00 0.00 0.00 56 1017.3
20260506183923 71 118 2.0 9.0 0.00 0.00 0.00 54 1017.4
20260506182923 72 206 2.0 5.0 0.00 0.00 0.00 52 1017.5
20260506182422 72 130 3.0 7.0 0.00 0.00 0.00 52 1017.5
20260506181923 73 193 2.0 7.0 0.00 0.00 0.00 54 1017.5
20260506181422 71 142 2.0 5.0 0.00 0.00 0.00 54 1017.7
20260506180923 71 27 2.0 5.0 0.00 0.00 0.00 53 1017.6
20260506180423 71 138 2.0 6.0 0.00 0.00 0.00 52 1017.6
20260506175922 72 138 2.0 6.0 0.00 0.00 0.00 51 1017.7
20260506175422 73 180 1.0 5.0 0.00 0.00 0.00 53 1017.6
20260506174922 72 120 1.0 5.0 0.00 0.00 0.00 53 1017.7
20260506174423 70 148 2.0 5.0 0.00 0.00 0.00 53 1017.7
20260506173922 70 109 2.0 6.0 0.00 0.00 0.00 52 1017.6
20260506173422 70 137 2.0 6.0 0.00 0.00 0.00 53 1017.7
20260506172923 70 99 2.0 5.0 0.00 0.00 0.00 54 1017.7
20260506172423 70 140 2.0 5.0 0.00 0.00 0.00 52 1017.7
20260506171923 70 123 1.0 5.0 0.00 0.00 0.00 53 1017.8
20260506171422 69 94 2.0 5.0 0.00 0.00 0.00 57 1017.8
20260506170922 70 85 2.0 4.0 0.00 0.00 0.00 54 1017.7
20260506170422 70 125 2.0 3.0 0.00 0.00 0.00 52 1017.7
20260506165923 70 104 1.0 3.0 0.00 0.00 0.00 54 1017.7
20260506165422 69 111 1.0 3.0 0.00 0.00 0.00 54 1017.8
20260506164424 68 113 1.0 4.0 0.00 0.00 0.00 56 1017.8
20260506163923 67 100 2.0 4.0 0.00 0.00 0.00 55 1017.8
20260506162922 67 87 1.0 3.0 0.00 0.00 0.00 57 1017.9
20260506162421 68 186 1.0 2.0 0.00 0.00 0.00 56 1017.9
20260506161922 68 149 1.0 2.0 0.00 0.00 0.00 58 1017.9
20260506160924 67 128 0.0 2.0 0.00 0.00 0.00 61 1017.9
20260506160423 65 144 1.0 3.0 0.00 0.00 0.00 61 1017.8
20260506155923 64 99 2.0 3.0 0.00 0.00 0.00 62 1017.8
20260506155425 64 178 1.0 3.0 0.00 0.00 0.00 62 1017.8
20260506154923 63 99 1.0 3.0 0.00 0.00 0.00 64 1017.8
20260506154423 64 87 1.0 3.0 0.00 0.00 0.00 65 1017.9
20260506153921 62 144 0.0 2.0 0.00 0.00 0.00 65 1017.8
20260506153422 63 165 1.0 1.0 0.00 0.00 0.00 64 1017.9
20260506152922 62 127 0.0 2.0 0.00 0.00 0.00 69 1018.0
20260506152422 61 140 1.0 2.0 0.00 0.00 0.00 69 1017.9
20260506151422 61 124 0.0 2.0 0.00 0.00 0.00 74 1017.9
20260506150921 60 116 0.0 2.0 0.00 0.00 0.00 74 1018.0
20260506150423 58 166 1.0 2.0 0.00 0.00 0.00 76 1018.1
20260506145923 58 103 0.0 2.0 0.00 0.00 0.00 77 1018.0
20260506145423 57 180 0.0 2.0 0.00 0.00 0.00 79 1018.0
20260506144922 56 180 0.0 2.0 0.00 0.00 0.00 79 1018.0
20260506144422 55 94 0.0 2.0 0.00 0.00 0.00 80 1018.0
20260506143925 55 87 0.0 2.0 0.00 0.00 0.00 82 1017.9
20260506142922 53 55 1.0 2.0 0.00 0.00 0.00 83 1017.9
20260506142422 53 47 1.0 3.0 0.00 0.00 0.00 87 1017.9
20260506141922 52 4 1.0 3.0 0.00 0.00 0.00 90 1017.7
20260506141422 51 39 2.0 3.0 0.00 0.00 0.00 91 1017.8
20260506140922 49 8 1.0 2.0 0.00 0.00 0.00 91 1017.7
20260506140423 48 0 1.0 2.0 0.00 0.00 0.00 91 1017.7
20260506135923 48 0 1.0 2.0 0.00 0.00 0.00 90 1017.7
20260506135422 47 347 1.0 2.0 0.00 0.00 0.00 90 1017.6
20260506134922 47 338 1.0 2.0 0.00 0.00 0.00 90 1017.7
20260506134423 47 334 1.0 1.0 0.00 0.00 0.00 90 1017.6
20260506133922 47 353 0.0 1.0 0.00 0.00 0.00 90 1017.7
20260506133422 47 353 0.0 1.0 0.00 0.00 0.00 90 1017.7
20260506132923 47 353 1.0 1.0 0.00 0.00 0.00 89 1017.7
20260506132422 47 353 0.0 0.0 0.00 0.00 0.00 89 1017.6
20260506131922 47 353 0.0 0.0 0.00 0.00 0.00 89 1017.5
20260506131421 47 353 0.0 1.0 0.00 0.00 0.00 90 1017.5
20260506130922 47 353 0.0 1.0 0.00 0.00 0.00 90 1017.5
20260506130422 47 353 1.0 1.0 0.00 0.00 0.00 90 1017.5
20260506125922 47 353 0.0 1.0 0.00 0.00 0.00 90 1017.4
20260506125422 47 353 1.0 1.0 0.00 0.00 0.00 90 1017.3
20260506124921 47 353 1.0 1.0 0.00 0.00 0.00 90 1017.3
20260506123922 47 353 1.0 2.0 0.00 0.00 0.00 90 1017.2
20260506123423 47 353 0.0 1.0 0.00 0.00 0.00 89 1017.3
20260506122921 47 353 0.0 2.0 0.00 0.00 0.00 89 1017.2
20260506121923 47 345 1.0 2.0 0.00 0.00 0.00 89 1017.0
20260506121421 47 345 1.0 2.0 0.00 0.00 0.00 89 1016.9
20260506120924 48 345 0.0 2.0 0.00 0.00 0.00 89 1016.9
20260506120422 48 345 0.0 2.0 0.00 0.00 0.00 89 1016.9
20260506115422 48 345 1.0 2.0 0.00 0.00 0.00 89 1016.9
20260506114921 48 345 0.0 2.0 0.00 0.00 0.00 89 1016.9
20260506114422 48 345 0.0 1.0 0.00 0.00 0.00 89 1016.9
20260506113922 48 345 0.0 1.0 0.00 0.00 0.00 89 1016.9
20260506113421 48 345 0.0 1.0 0.00 0.00 0.00 89 1016.8
20260506112921 48 345 0.0 1.0 0.00 0.00 0.00 89 1016.9
20260506112421 48 345 1.0 2.0 0.00 0.00 0.00 89 1016.8
20260506111921 48 345 1.0 3.0 0.00 0.00 0.00 89 1016.9
20260506111422 48 327 1.0 3.0 0.00 0.00 0.00 89 1016.8
20260506110424 48 348 1.0 2.0 0.00 0.00 0.00 89 1016.9
20260506105921 49 0 0.0 2.0 0.00 0.00 0.00 89 1016.9
20260506105423 48 323 1.0 2.0 0.00 0.00 0.00 89 1016.9
20260506104922 49 321 0.0 2.0 0.00 0.00 0.00 89 1016.9
20260506104422 49 321 1.0 2.0 0.00 0.00 0.00 89 1016.8
20260506103922 49 334 0.0 2.0 0.00 0.00 0.00 89 1016.8
20260506103421 49 334 1.0 2.0 0.00 0.00 0.00 89 1016.8
20260506102921 49 337 1.0 2.0 0.00 0.00 0.00 89 1016.8
20260506102421 49 319 1.0 3.0 0.00 0.00 0.00 89 1016.8
20260506101923 49 0 1.0 3.0 0.00 0.00 0.00 89 1016.8
20260506101423 49 348 1.0 1.0 0.00 0.00 0.00 89 1016.8
20260506095921 49 337 0.0 2.0 0.00 0.00 0.00 89 1016.8
20260506095422 49 337 0.0 3.0 0.00 0.00 0.00 89 1016.9
20260506094922 49 305 2.0 3.0 0.00 0.00 0.00 89 1016.8
20260506093923 49 0 1.0 2.0 0.00 0.00 0.00 89 1016.9
20260506093421 49 0 1.0 2.0 0.00 0.00 0.00 89 1016.9
20260506092922 49 0 0.0 3.0 0.00 0.00 0.00 89 1016.9
20260506092422 49 0 0.0 4.0 0.00 0.00 0.00 89 1017.1
20260506091922 49 27 2.0 4.0 0.00 0.00 0.00 89 1017.1
20260506091421 49 32 0.0 4.0 0.00 0.00 0.00 89 1017.1
20260506090922 49 27 2.0 4.0 0.00 0.00 0.00 89 1017.2
20260506085922 49 7 0.0 1.0 0.00 0.00 0.00 89 1017.2
20260506085422 50 7 0.0 4.0 0.00 0.00 0.00 89 1017.1
20260506084421 50 32 2.0 3.0 0.00 0.00 0.00 89 1017.1
20260506083421 50 341 1.0 2.0 0.00 0.00 0.00 89 1017.2
20260506082422 50 314 2.0 3.0 0.00 0.00 0.00 89 1017.2
20260506081922 50 344 1.0 2.0 0.00 0.00 0.00 89 1017.3
20260506081421 50 320 1.0 2.0 0.00 0.00 0.00 89 1017.1
20260506080922 50 313 0.0 2.0 0.00 0.00 0.00 89 1017.2
20260506080420 50 313 1.0 2.0 0.00 0.00 0.00 89 1017.1
20260506073421 51 320 0.0 2.0 0.00 0.00 0.00 88 1017.1
20260506072921 51 320 1.0 2.0 0.00 0.00 0.00 88 1017.1
20260506071420 51 307 2.0 3.0 0.00 0.00 0.00 88 1017.0
20260506070421 51 347 1.0 3.0 0.00 0.00 0.00 88 1016.9
20260506062421 52 337 0.0 3.0 0.00 0.00 0.00 87 1016.3
20260506061920 52 337 1.0 3.0 0.00 0.00 0.00 87 1016.3
20260506061423 52 319 0.0 3.0 0.00 0.00 0.00 87 1016.2
20260506060921 52 319 0.0 3.0 0.00 0.00 0.00 87 1016.2
20260506060421 52 13 0.0 2.0 0.00 0.00 0.00 87 1016.3
20260506050921 53 334 1.0 3.0 0.00 0.00 0.00 86 1016.0
20260506050423 53 7 0.0 2.0 0.00 0.00 0.00 85 1016.0
20260506044921 54 314 0.0 3.0 0.00 0.00 0.00 85 1015.7
20260506044421 54 310 2.0 4.0 0.00 0.00 0.00 85 1015.7
20260506043421 54 341 1.0 2.0 0.00 0.00 0.00 84 1015.6
20260506042922 54 324 0.0 4.0 0.00 0.00 0.00 84 1015.5
20260506042420 54 324 1.0 4.0 0.00 0.00 0.00 84 1015.5
20260506041920 55 331 1.0 1.0 0.00 0.00 0.00 84 1015.5
20260506041422 55 334 0.0 1.0 0.00 0.00 0.00 83 1015.5
20260506040921 55 334 0.0 1.0 0.00 0.00 0.00 84 1015.4
20260506040422 55 334 0.0 1.0 0.00 0.00 0.00 84 1015.3
20260506034920 56 316 1.0 4.0 0.00 0.00 0.00 83 1014.9
20260506034421 56 313 2.0 2.0 0.00 0.00 0.00 82 1014.9
20260506033922 56 314 1.0 2.0 0.00 0.00 0.00 82 1014.9
20260506033421 56 329 0.0 2.0 0.00 0.00 0.00 81 1014.6
20260506032921 56 320 1.0 1.0 0.00 0.00 0.00 81 1014.6
20260506032422 57 306 0.0 0.0 0.00 0.00 0.00 80 1014.6
20260506031922 57 306 0.0 0.0 0.00 0.00 0.00 80 1014.5
20260506031422 57 306 0.0 0.0 0.00 0.00 0.00 80 1014.4
20260506030922 57 306 0.0 0.0 0.00 0.00 0.00 80 1014.3
20260506030421 58 306 0.0 0.0 0.00 0.00 0.00 80 1014.3